Wind_Speed
13 13 12 12 13 13 15 16 15 14 14 13 13 12 11 10 9 9 9 9 10 10 10 10 10 9 7 6 4 3 3 3 3 1 1 0 1 1 1 1 1 2 2 3 4 5 5 5 5
13 13 13 12 14 15 16 17 16 16 14 14 14 13 11 10 10 9 9 10 10 10 10 10 10 9 9 8 6 5 4 4 4 3 2 1 0 0 0 1 1 1 2 2 3 3 4 4 5
13 12 11 13 16 17 17 17 16 16 14 14 14 13 12 11 11 10 10 10 10 10 10 10 10 9 9 9 8 7 5 4 4 4 4 3 2 1 0 1 1 2 2 2 2 3 3 4 5
11 11 12 13 16 18 18 17 16 15 14 14 14 13 13 12 12 11 11 11 10 9 9 9 9 9 9 9 8 7 6 5 5 5 5 4 3 2 2 1 1 2 2 2 2 3 3 4 6
9 11 13 14 16 18 18 18 17 16 15 15 15 14 13 13 13 12 11 11 10 10 9 9 10 9 9 9 9 8 7 6 6 5 5 4 3 2 1 1 1 1 2 2 1 3 4 5 6
10 11 14 15 15 16 17 18 17 16 15 16 16 15 14 13 14 14 13 12 11 9 9 8 9 9 9 9 8 8 7 7 6 6 6 5 4 2 1 0 1 1 2 2 3 4 6 6 6
11 12 13 13 14 15 16 16 16 15 15 16 16 15 14 14 14 14 13 13 12 11 10 9 9 9 8 9 9 8 7 7 6 6 5 6 5 3 2 1 1 1 2 3 4 5 5 5 5
9 11 12 12 13 14 15 15 15 15 15 15 15 15 15 15 15 14 13 13 12 12 10 9 9 8 8 8 9 8 8 7 7 6 6 6 6 5 3 2 2 2 2 4 5 5 6 5 6
8 10 12 12 14 14 15 15 15 15 14 15 15 15 15 15 15 15 14 13 13 12 11 9 9 8 8 9 9 8 8 7 6 6 6 6 6 6 5 4 3 2 2 5 6 6 6 6 5
9 11 12 12 13 14 14 13 13 14 14 14 14 15 15 15 15 14 13 13 13 12 11 10 10 8 8 8 8 8 7 7 6 6 6 5 5 6 5 5 4 4 4 5 6 6 6 5 5
9 9 10 12 13 13 14 14 14 14 14 14 14 14 14 14 14 13 13 13 13 13 12 11 11 10 9 9 8 8 7 7 6 6 6 5 5 5 6 6 6 6 6 5 6 6 6 5 5
7 6 8 10 11 13 13 14 14 13 13 13 14 14 14 14 13 13 12 12 12 13 12 12 11 10 10 9 9 8 8 8 7 7 6 6 6 7 7 6 5 5 5 5 5 5 5 5 4
6 6 7 9 10 11 11 13 13 13 12 13 13 14 14 13 12 12 12 11 12 12 11 11 11 10 10 10 10 9 9 8 7 6 6 7 7 6 7 6 5 5 5 5 5 4 4 4 4
4 4 5 7 8 9 11 11 12 13 12 12 12 13 13 13 13 12 11 11 11 11 11 10 10 10 10 10 10 10 9 9 8 8 7 7 6 6 6 6 5 3 4 4 4 3 2 3 3
3 3 3 5 6 7 8 9 10 11 12 11 12 12 13 13 13 13 12 11 10 10 11 10 9 10 10 10 10 10 10 9 8 8 7 7 6 6 6 6 6 4 3 3 3 3 2 2 3
2 1 2 3 4 6 7 8 10 10 10 11 10 11 11 12 13 13 12 11 10 10 9 9 9 8 9 10 10 10 9 9 9 8 7 7 6 6 6 6 6 5 4 4 5 4 2 1 2
2 1 1 1 2 5 7 8 8 9 9 9 9 10 10 11 12 12 12 11 10 10 9 8 7 7 8 8 8 9 9 8 7 7 7 6 6 6 5 5 5 4 4 5 5 4 3 1 1
2 2 1 1 2 5 7 7 8 8 9 8 8 8 9 10 11 11 11 11 10 10 9 8 7 7 7 7 7 8 8 8 7 7 7 6 6 6 5 5 4 4 4 4 4 3 2 1 1
3 3 2 1 4 6 7 8 8 9 10 9 8 8 9 10 10 10 10 10 9 9 9 8 7 7 7 7 7 7 7 7 7 7 7 6 6 6 5 5 5 4 4 3 3 3 2 1 1
5 4 3 3 6 7 8 8 8 8 10 8 7 8 8 9 9 10 10 9 9 8 9 8 7 6 6 6 6 6 6 6 7 7 7 7 7 6 6 6 5 4 4 4 3 3 2 2 2
7 5 5 5 6 8 9 9 10 10 8 7 6 7 8 8 8 9 9 9 9 8 8 8 7 6 6 6 7 7 7 6 6 7 6 6 6 6 6 5 5 5 5 6 5 5 4 4 4
7 5 6 6 7 7 8 9 9 9 7 6 5 6 7 8 8 9 8 8 9 9 8 8 7 6 6 6 7 7 7 7 7 7 6 5 6 6 6 6 6 6 6 6 6 6 6 6 6
8 7 7 7 7 7 8 8 7 8 7 6 6 6 7 8 9 10 10 10 9 9 8 8 8 7 7 7 7 8 7 7 8 7 6 6 6 6 7 7 7 7 7 7 7 7 7 7 7
9 9 9 8 8 8 7 7 5 6 7 8 6 6 7 8 9 10 10 10 9 9 9 8 8 8 8 8 8 8 8 8 8 7 7 7 7 8 8 9 9 10 9 9 8 8 8 8 9
9 9 10 9 8 8 7 7 6 6 6 8 7 7 7 8 8 9 9 9 9 9 9 9 9 9 9 9 9 9 9 8 8 8 7 8 8 9 10 10 11 11 11 10 10 9 9 10 10
8 9 11 11 9 8 8 8 7 6 7 8 7 7 7 8 9 9 9 10 10 10 9 9 10 10 10 10 10 10 10 9 9 9 9 9 10 11 11 12 12 13 12 12 11 11 11 11 11
10 9 10 10 10 10 9 9 8 7 8 8 9 10 10 10 10 10 10 11 10 11 11 10 11 11 11 11 11 11 10 10 10 11 11 11 12 12 12 12 13 13 13 12 12 13 13 12 12
10 11 11 11 11 11 10 10 9 10 9 9 11 11 12 12 12 12 11 11 11 11 12 12 12 12 12 12 12 12 11 11 12 12 12 13 13 14 14 14 15 14 14 14 14 15 15 14 14
13 12 13 13 14 13 13 13 12 13 13 12 12 12 12 12 12 13 13 13 13 12 12 13 13 13 14 14 14 14 13 13 13 14 14 14 15 16 16 16 16 16 16 16 17 17 16 16 17
15 15 15 15 14 14 16 16 15 15 14 14 14 14 13 13 14 14 15 14 15 14 14 15 15 15 15 15 15 15 14 14 14 15 15 15 16 16 17 17 17 17 17 18 18 18 18 18 18
Wind_Direction
84 80 74 66 56 49 46 45 43 40 38 36 31 27 24 23 23 22 21 23 29 28 30 33 30 29 33 37 35 43 25 17 8 3 34 103 190 247 261 255 266 262 250 244 229 213 214 213 203
80 72 69 64 56 50 46 42 41 39 38 35 30 26 26 27 28 24 23 26 27 27 29 33 36 38 40 45 50 54 39 33 33 38 36 49 41 232 287 270 276 279 263 247 230 232 223 209 192
80 73 60 53 51 48 44 40 38 36 34 32 31 28 29 31 32 27 28 29 30 29 32 36 42 46 48 52 55 49 43 41 45 53 53 56 62 76 10 285 263 291 267 248 239 233 220 199 188
84 73 57 52 52 49 43 39 37 34 33 32 33 33 34 38 37 34 32 32 34 37 38 42 45 48 51 51 50 48 46 48 50 55 50 49 51 63 45 0 270 282 260 235 228 224 211 185 173
78 69 59 51 49 44 43 40 38 35 32 32 33 36 39 38 37 36 36 36 40 44 44 46 49 52 50 46 44 45 46 51 55 51 45 37 28 27 56 5 334 226 194 186 179 169 170 172 171
76 64 56 49 45 46 43 40 38 36 32 32 35 37 39 40 39 37 38 44 47 46 48 48 50 48 48 45 41 41 45 49 54 49 46 37 27 37 102 72 81 137 158 153 132 140 148 158 169
75 65 55 52 47 44 42 38 37 37 35 34 34 33 37 41 43 41 44 50 49 49 49 48 51 51 50 45 39 41 48 51 54 50 45 39 33 46 101 149 143 124 134 150 134 134 138 145 163
72 60 53 51 47 42 40 34 34 36 35 33 32 34 38 38 41 42 47 49 49 51 49 48 48 50 49 48 45 46 57 58 54 50 47 47 47 55 67 123 140 142 154 164 142 134 136 146 150
65 59 57 53 48 39 34 32 31 34 35 34 35 36 35 34 36 41 45 48 49 49 48 46 47 47 47 48 47 49 57 57 47 45 46 53 52 57 66 83 81 85 139 151 155 147 142 146 150
55 62 62 56 48 41 35 34 32 34 34 36 38 37 36 34 37 42 49 48 48 50 49 46 51 54 51 50 48 52 55 54 45 38 44 55 54 49 55 61 45 57 98 124 144 150 142 143 146
53 53 50 48 38 37 40 37 36 36 35 36 37 36 36 35 38 42 48 48 47 48 50 49 53 54 49 47 48 53 52 47 42 40 44 47 47 48 55 53 55 72 90 109 119 127 128 130 137
64 46 49 49 42 36 40 35 33 31 32 35 34 34 35 35 39 43 45 49 47 46 46 47 49 50 48 48 47 53 49 45 40 37 42 48 46 48 53 57 59 76 88 103 117 122 120 118 122
72 49 48 43 40 35 32 28 28 30 31 34 33 31 32 34 36 41 42 43 44 44 45 47 48 47 45 44 43 46 42 39 38 36 41 45 44 48 46 50 50 59 76 92 108 123 122 122 133
96 68 46 39 31 25 19 20 24 28 28 30 31 31 31 33 33 35 38 40 41 41 42 46 47 45 44 42 41 42 43 42 40 40 40 40 45 46 44 44 48 47 66 79 97 124 116 136 150
111 74 42 32 31 15 10 11 14 20 21 23 28 32 33 32 32 35 36 38 38 39 39 39 41 40 42 42 40 40 44 44 41 41 42 39 40 41 39 37 44 47 53 61 65 90 111 130 150
144 81 22 15 29 4 356 4 358 5 11 16 22 32 34 33 34 34 35 34 34 34 34 34 34 35 35 37 36 34 36 38 40 40 41 38 36 40 45 41 40 43 44 42 46 63 83 128 162
174 218 343 30 16 342 338 347 352 357 2 10 16 24 28 28 30 28 28 29 28 29 28 28 28 31 29 31 33 32 31 30 33 34 32 32 36 41 43 42 38 38 41 43 43 47 59 87 101
214 214 263 304 324 324 329 346 349 350 352 359 7 11 22 22 24 22 22 24 23 22 23 24 23 22 23 26 27 25 26 26 27 28 26 29 36 39 37 37 32 34 41 38 40 42 46 68 85
234 220 228 324 320 318 327 335 339 342 345 351 2 10 16 15 18 21 19 18 16 16 17 13 13 12 16 21 24 23 19 17 21 23 23 20 29 34 33 31 28 29 22 14 13 17 22 360 343
241 238 245 291 303 303 316 317 322 331 340 351 357 3 9 11 15 16 15 13 10 9 8 6 3 4 5 8 14 14 15 16 15 16 15 13 19 27 28 28 23 10 353 346 344 342 333 320 318
235 237 253 274 285 296 304 308 318 325 329 342 345 351 359 2 6 4 4 2 358 359 0 358 358 4 6 3 3 2 1 4 8 8 5 2 8 12 14 16 8 358 350 336 328 314 305 304 302
231 238 246 268 277 296 303 304 313 322 318 322 330 339 356 356 355 351 346 351 349 349 350 348 347 351 353 352 352 348 347 347 350 353 354 353 353 354 354 351 350 352 348 337 325 310 303 300 293
234 239 244 259 274 276 290 293 304 313 317 316 321 333 341 350 349 347 342 340 341 340 338 337 334 331 333 338 339 338 338 337 336 337 333 333 334 335 336 337 336 334 333 326 316 304 303 299 295
232 237 247 251 266 280 289 295 309 306 313 317 328 339 345 349 349 345 341 339 339 337 333 332 331 331 332 332 333 333 330 326 325 323 322 326 325 324 324 323 325 323 320 313 310 306 299 291 287
234 238 245 253 270 285 279 283 299 302 312 319 327 332 333 336 340 338 334 333 331 331 329 327 327 328 328 326 326 328 326 321 319 315 310 311 311 313 312 313 316 318 316 309 305 301 298 289 284
235 246 251 254 268 278 277 279 285 296 309 317 320 322 320 326 332 328 323 321 322 323 323 322 321 318 317 318 320 319 320 318 314 310 304 300 301 304 307 311 314 316 315 309 305 304 298 292 288
233 245 262 267 272 272 274 283 280 292 299 309 310 313 314 319 323 323 323 320 321 320 318 314 315 313 313 313 314 314 312 311 309 305 303 302 302 302 302 305 308 310 310 309 305 306 298 294 291
236 248 255 259 262 270 271 279 286 293 298 311 313 307 314 319 320 317 321 319 317 316 315 315 313 311 311 312 311 308 306 307 304 302 302 303 303 300 300 300 302 303 303 301 301 301 296 293 293
233 246 255 259 259 266 270 274 282 293 296 298 302 302 310 316 318 317 315 313 311 308 309 310 309 309 308 308 308 307 305 304 303 301 299 299 299 299 299 299 299 298 298 297 298 297 296 291 290
237 243 253 258 258 265 269 273 276 286 292 295 296 296 305 313 315 316 312 311 308 303 302 304 304 303 303 304 305 306 304 303 302 301 300 298 297 297 298 298 297 297 297 294 294 295 294 293 291
Height
5903 5903 5903 5903 5902 5902 5899 5899 5898 5897 5896 5894 5893 5891 5890 5889 5888 5888 5884 5881 5880 5879 5877 5876 5873 5871 5868 5867 5867 5868 5869 5870 5870 5869 5869 5869 5870 5870 5871 5871 5871 5871 5871 5870 5870 5871 5871 5871 5872
5905 5904 5905 5904 5903 5902 5901 5900 5899 5898 5896 5895 5894 5892 5891 5889 5888 5886 5884 5882 5880 5879 5878 5876 5874 5872 5870 5868 5868 5869 5870 5870 5870 5870 5869 5869 5869 5869 5870 5870 5870 5870 5870 5870 5869 5869 5870 5870 5870
5907 5906 5907 5906 5904 5903 5902 5901 5900 5899 5897 5896 5895 5893 5892 5890 5888 5886 5884 5882 5881 5880 5879 5877 5876 5874 5873 5871 5871 5871 5871 5871 5871 5871 5870 5869 5869 5870 5870 5870 5869 5869 5869 5868 5868 5868 5868 5868 5869
5909 5909 5909 5908 5905 5904 5903 5903 5902 5901 5899 5897 5896 5894 5892 5890 5888 5887 5885 5884 5882 5881 5880 5879 5877 5876 5875 5874 5873 5873 5873 5872 5872 5871 5871 5870 5869 5869 5869 5869 5868 5868 5867 5867 5867 5867 5867 5867 5869
5910 5910 5909 5908 5906 5906 5905 5904 5903 5902 5900 5898 5897 5895 5893 5891 5889 5887 5886 5884 5883 5882 5881 5880 5879 5877 5877 5876 5875 5875 5874 5874 5873 5872 5872 5871 5869 5869 5868 5868 5867 5867 5867 5866 5866 5866 5866 5867 5869
5912 5911 5910 5910 5908 5908 5907 5906 5905 5903 5901 5899 5897 5896 5894 5892 5890 5888 5886 5885 5884 5883 5882 5881 5880 5879 5878 5878 5877 5876 5876 5875 5874 5874 5872 5870 5868 5867 5867 5867 5867 5867 5866 5866 5866 5866 5866 5868 5869
5913 5911 5911 5911 5910 5910 5909 5907 5906 5905 5903 5901 5899 5897 5895 5894 5891 5889 5888 5887 5886 5885 5884 5883 5882 5881 5880 5879 5879 5878 5877 5876 5876 5875 5873 5870 5866 5864 5865 5866 5867 5867 5866 5865 5866 5866 5867 5868 5869
5914 5913 5912 5912 5912 5911 5910 5909 5908 5906 5904 5902 5900 5898 5896 5895 5893 5891 5890 5889 5887 5886 5885 5884 5883 5882 5882 5881 5880 5879 5878 5878 5877 5876 5874 5872 5868 5865 5866 5867 5867 5866 5865 5864 5865 5867 5868 5868 5869
5915 5915 5913 5913 5913 5912 5911 5910 5909 5907 5905 5904 5902 5900 5898 5896 5894 5893 5891 5890 5889 5888 5887 5885 5884 5884 5883 5882 5882 5881 5880 5879 5878 5877 5876 5874 5871 5870 5869 5869 5868 5866 5863 5862 5864 5867 5868 5869 5870
5914 5914 5914 5914 5914 5914 5912 5911 5910 5908 5907 5905 5904 5902 5900 5898 5896 5895 5893 5892 5891 5890 5888 5887 5886 5885 5884 5883 5883 5882 5881 5881 5880 5879 5878 5876 5875 5873 5872 5871 5869 5866 5863 5863 5865 5867 5869 5869 5870
5915 5916 5915 5915 5914 5914 5913 5913 5911 5910 5908 5907 5905 5904 5902 5900 5898 5897 5895 5894 5892 5891 5890 5888 5887 5886 5885 5885 5884 5883 5883 5882 5881 5880 5879 5878 5876 5875 5874 5873 5871 5869 5867 5867 5868 5869 5869 5870 5870
5917 5917 5917 5916 5916 5915 5914 5914 5913 5911 5910 5908 5906 5905 5903 5902 5900 5898 5897 5895 5894 5892 5891 5890 5889 5888 5887 5886 5885 5884 5883 5883 5882 5881 5880 5879 5878 5877 5876 5874 5873 5872 5871 5870 5871 5871 5871 5871 5871
5918 5918 5918 5917 5916 5916 5915 5915 5914 5912 5911 5909 5907 5906 5905 5903 5901 5900 5898 5896 5895 5894 5892 5891 5890 5889 5888 5887 5886 5885 5884 5883 5883 5882 5881 5880 5879 5878 5877 5876 5875 5874 5873 5873 5872 5872 5872 5872 5872
5918 5918 5919 5918 5917 5916 5916 5916 5915 5913 5912 5910 5909 5907 5906 5905 5903 5901 5899 5898 5896 5895 5894 5892 5891 5890 5889 5888 5887 5886 5885 5885 5884 5883 5882 5881 5880 5879 5878 5877 5876 5875 5874 5874 5873 5873 5873 5873 5873
5919 5919 5919 5918 5918 5917 5917 5916 5915 5914 5913 5911 5910 5908 5907 5906 5904 5902 5901 5899 5898 5897 5895 5894 5893 5892 5891 5890 5888 5887 5886 5885 5884 5883 5882 5881 5880 5880 5879 5877 5877 5876 5875 5875 5874 5874 5874 5873 5873
5919 5919 5919 5918 5918 5918 5919 5917 5916 5915 5913 5912 5910 5909 5908 5907 5905 5904 5902 5900 5899 5898 5897 5895 5894 5893 5892 5890 5889 5888 5887 5886 5885 5884 5883 5882 5881 5880 5879 5878 5877 5876 5876 5875 5875 5875 5874 5874 5874
5918 5918 5918 5917 5917 5917 5917 5917 5916 5915 5914 5913 5911 5910 5909 5907 5906 5904 5903 5901 5900 5899 5897 5896 5895 5893 5892 5891 5890 5889 5888 5887 5885 5884 5883 5883 5881 5880 5879 5879 5878 5877 5876 5875 5875 5875 5875 5874 5874
5917 5917 5917 5917 5917 5916 5916 5917 5916 5915 5914 5913 5911 5910 5909 5907 5906 5905 5903 5902 5901 5899 5898 5896 5895 5894 5893 5892 5891 5889 5888 5887 5886 5885 5884 5883 5881 5880 5879 5879 5878 5877 5876 5876 5875 5875 5874 5874 5874
5916 5916 5916 5917 5916 5915 5915 5915 5915 5914 5913 5912 5911 5910 5909 5908 5906 5905 5904 5903 5901 5900 5898 5897 5896 5894 5893 5892 5891 5890 5889 5887 5886 5885 5884 5883 5882 5881 5880 5879 5878 5877 5876 5875 5875 5874 5874 5873 5873
5915 5915 5916 5916 5916 5915 5914 5914 5914 5914 5912 5910 5910 5909 5908 5907 5907 5906 5904 5903 5901 5900 5899 5897 5896 5894 5893 5892 5891 5890 5889 5888 5887 5885 5884 5883 5882 5880 5879 5878 5877 5877 5875 5875 5874 5873 5873 5872 5872
5913 5914 5915 5915 5915 5914 5914 5913 5913 5912 5911 5910 5909 5908 5907 5907 5906 5906 5904 5903 5901 5900 5898 5897 5895 5894 5893 5892 5890 5889 5888 5887 5886 5885 5884 5882 5881 5880 5879 5878 5877 5876 5874 5873 5872 5871 5871 5871 5870
5912 5913 5913 5913 5913 5912 5912 5912 5912 5911 5909 5909 5908 5907 5906 5905 5905 5905 5903 5902 5901 5899 5898 5896 5895 5893 5892 5891 5890 5889 5887 5886 5885 5884 5883 5882 5880 5879 5878 5877 5875 5874 5873 5871 5870 5870 5869 5869 5868
5910 5910 5911 5911 5911 5911 5911 5910 5911 5909 5909 5908 5907 5906 5905 5905 5904 5903 5902 5901 5900 5898 5897 5895 5894 5893 5891 5890 5889 5888 5886 5885 5884 5882 5881 5880 5879 5878 5876 5875 5874 5872 5871 5870 5868 5867 5867 5866 5866
5907 5908 5909 5909 5909 5910 5909 5909 5909 5908 5907 5907 5906 5905 5904 5904 5903 5902 5901 5900 5898 5897 5896 5894 5893 5892 5890 5889 5888 5886 5885 5883 5882 5881 5880 5878 5877 5876 5875 5873 5872 5870 5868 5867 5866 5865 5864 5864 5863
5905 5907 5907 5907 5907 5908 5907 5906 5907 5906 5905 5905 5905 5904 5903 5902 5901 5900 5899 5898 5897 5895 5894 5893 5891 5890 5889 5887 5886 5884 5883 5881 5880 5879 5878 5876 5875 5874 5872 5870 5869 5867 5865 5864 5863 5862 5861 5861 5860
5903 5904 5905 5905 5905 5905 5904 5904 5905 5904 5903 5903 5902 5902 5901 5900 5899 5898 5897 5896 5895 5894 5892 5891 5889 5888 5887 5885 5884 5882 5881 5879 5878 5876 5875 5874 5873 5871 5869 5868 5866 5864 5862 5861 5860 5859 5858 5857 5856
5900 5901 5902 5902 5902 5901 5901 5902 5902 5901 5901 5901 5900 5899 5898 5897 5897 5896 5895 5893 5892 5891 5890 5888 5887 5886 5885 5883 5881 5880 5878 5876 5875 5873 5872 5871 5869 5868 5866 5864 5863 5861 5859 5858 5857 5855 5854 5853 5852
5897 5898 5899 5899 5899 5898 5898 5898 5899 5898 5898 5897 5897 5896 5896 5894 5894 5893 5892 5891 5890 5889 5888 5886 5885 5883 5882 5880 5878 5877 5875 5873 5872 5870 5869 5868 5866 5864 5862 5861 5859 5857 5856 5854 5853 5851 5850 5849 5847
5894 5895 5895 5895 5895 5896 5895 5898 5897 5896 5895 5894 5894 5894 5893 5891 5891 5890 5889 5888 5887 5885 5884 5883 5882 5880 5879 5877 5875 5873 5871 5870 5868 5867 5866 5864 5862 5860 5859 5857 5855 5854 5852 5850 5849 5847 5846 5844 5842
5890 5891 5892 5892 5892 5892 5892 5895 5892 5892 5891 5891 5890 5889 5888 5888 5887 5887 5885 5884 5883 5882 5881 5879 5878 5877 5875 5873 5871 5869 5867 5866 5864 5863 5861 5860 5858 5856 5854 5852 5851 5849 5847 5846 5844 5843 5841 5839 5838